EW6135 Weather Reports


Display with metric or nautical units.
time (UTC)temp
F
wind
direction
speed
MPH
gust
MPH
rain 1hr
in
rain 24hr
in
rain mn
in
humidity
%
barometer
mb
20260506222008 73 260 3.0 15.0 0.00 0.03 0.01 71 1013.4
20260506221636 73 281 5.0 15.0 0.00 0.03 0.01 70 1013.3
20260506221009 73 239 2.0 8.0 0.00 0.03 0.01 70 1013.2
20260506220510 74 280 2.0 13.0 0.00 0.03 0.01 71 1013.0
20260506220015 74 241 4.0 13.0 0.00 0.03 0.01 70 1012.9
20260506215512 74 241 2.0 10.0 0.00 0.03 0.01 72 1012.9
20260506215008 74 271 4.0 11.0 0.00 0.03 0.01 72 1013.0
20260506214509 74 260 4.0 9.0 0.00 0.03 0.01 72 1012.9
20260506214009 75 269 1.0 9.0 0.00 0.03 0.01 72 1012.7
20260506213507 75 124 2.0 8.0 0.00 0.03 0.01 71 1012.6
20260506213006 75 230 1.0 16.0 0.00 0.03 0.01 72 1012.6
20260506212504 76 221 4.0 15.0 0.00 0.03 0.01 72 1013.1
20260506212002 76 268 6.0 13.0 0.00 0.03 0.01 72 1013.5
20260506211603 77 200 6.0 15.0 0.00 0.03 0.01 73 1013.9
20260506211004 77 243 5.0 14.0 0.00 0.03 0.01 73 1014.0
20260506210503 77 221 4.0 13.0 0.00 0.03 0.01 73 1014.0
20260506210005 77 255 4.0 16.0 0.00 0.03 0.01 74 1013.8
20260506205502 77 208 7.0 21.0 0.00 0.03 0.01 74 1013.7
20260506205003 77 240 5.0 21.0 0.00 0.03 0.01 74 1013.5
20260506204502 78 198 6.0 18.0 0.00 0.03 0.01 74 1013.7
20260506204004 78 233 6.0 22.0 0.00 0.03 0.01 74 1013.9
20260506203501 78 223 5.0 22.0 0.00 0.03 0.01 75 1014.0
20260506203001 78 235 7.0 14.0 0.00 0.03 0.01 75 1013.8
20260506202601 78 143 5.0 26.0 0.00 0.03 0.01 75 1013.8
20260506202101 78 94 6.0 26.0 0.00 0.03 0.01 75 1013.9
20260506201600 79 213 2.0 15.0 0.00 0.03 0.01 77 1014.0
20260506201059 79 294 1.0 15.0 0.00 0.03 0.01 77 1013.9
20260506200602 78 181 5.0 17.0 0.00 0.03 0.01 76 1014.1
20260506200059 78 243 5.0 17.0 0.00 0.03 0.01 76 1014.2
20260506195559 78 244 7.0 17.0 0.00 0.03 0.01 76 1014.1
20260506195059 78 271 6.0 19.0 0.00 0.03 0.01 76 1014.1
20260506194559 79 243 3.0 15.0 0.00 0.03 0.01 76 1014.1
20260506194058 79 192 5.0 18.0 0.00 0.03 0.01 76 1014.2
20260506193558 78 265 6.0 20.0 0.00 0.03 0.01 76 1014.2
20260506193059 78 255 5.0 15.0 0.00 0.03 0.01 76 1014.3
20260506192556 78 237 7.0 17.0 0.00 0.03 0.01 77 1014.3
20260506192057 78 237 8.0 23.0 0.00 0.03 0.01 76 1014.4
20260506191608 78 239 7.0 19.0 0.00 0.03 0.01 76 1014.6
20260506191056 78 254 8.0 19.0 0.00 0.03 0.01 75 1014.5
20260506190556 78 229 8.0 17.0 0.00 0.03 0.01 76 1014.6
20260506190057 77 269 5.0 17.0 0.00 0.03 0.01 77 1014.7
20260506185555 77 290 7.0 17.0 0.00 0.03 0.01 76 1014.6
20260506185055 78 254 7.0 14.0 0.00 0.03 0.01 74 1014.6
20260506184615 78 88 2.0 12.0 0.00 0.03 0.01 75 1014.6
20260506184056 77 217 2.0 14.0 0.00 0.03 0.01 78 1014.8
20260506183558 77 291 7.0 15.0 0.00 0.03 0.01 77 1014.8
20260506183057 77 243 5.0 15.0 0.00 0.03 0.01 76 1014.7
20260506182554 77 288 7.0 13.0 0.00 0.03 0.01 74 1014.7
20260506182054 78 222 4.0 13.0 0.00 0.03 0.01 74 1014.6
20260506181553 79 218 4.0 19.0 0.00 0.03 0.01 75 1014.8
20260506181053 79 151 6.0 19.0 0.00 0.03 0.01 75 1014.8
20260506180552 79 179 7.0 19.0 0.00 0.03 0.01 74 1014.9
20260506180052 79 113 5.0 15.0 0.00 0.03 0.01 73 1014.8
20260506175552 78 274 7.0 18.0 0.00 0.03 0.01 73 1015.1
20260506175050 79 193 7.0 18.0 0.00 0.03 0.01 72 1015.0
20260506174549 80 197 5.0 13.0 0.00 0.03 0.01 72 1015.4
20260506174049 80 248 6.0 17.0 0.00 0.03 0.01 73 1015.3
20260506173549 79 223 4.0 17.0 0.00 0.03 0.01 73 1015.5
20260506173050 80 272 4.0 17.0 0.00 0.03 0.01 72 1015.6
20260506172549 80 245 3.0 17.0 0.00 0.03 0.01 73 1015.5
20260506172048 79 218 2.0 14.0 0.00 0.03 0.01 75 1015.5
20260506171556 79 263 6.0 16.0 0.00 0.03 0.01 74 1015.6
20260506171047 79 158 6.0 16.0 0.00 0.03 0.01 73 1015.6
20260506170545 79 270 4.0 15.0 0.00 0.03 0.01 75 1015.6
20260506170051 79 269 7.0 16.0 0.00 0.03 0.01 73 1015.6
20260506165545 79 252 4.0 20.0 0.00 0.03 0.01 72 1015.7
20260506165045 79 205 4.0 18.0 0.00 0.03 0.01 75 1015.7
20260506164547 78 271 5.0 17.0 0.00 0.03 0.01 71 1015.7
20260506164045 78 260 6.0 17.0 0.00 0.03 0.01 73 1015.8
20260506163544 79 297 4.0 12.0 0.00 0.03 0.01 73 1016.0
20260506163043 78 190 3.0 15.0 0.00 0.03 0.01 75 1016.0
20260506162542 77 243 7.0 15.0 0.00 0.03 0.01 74 1016.2
20260506162042 78 264 8.0 21.0 0.00 0.03 0.01 74 1016.4
20260506161544 78 216 3.0 21.0 0.00 0.03 0.01 74 1016.2
20260506161042 78 206 3.0 21.0 0.00 0.03 0.01 75 1016.1
20260506160542 78 161 5.0 21.0 0.00 0.03 0.01 72 1016.1
20260506160057 78 266 5.0 13.0 0.00 0.03 0.01 73 1016.0
20260506155542 78 294 3.0 14.0 0.00 0.03 0.01 73 1016.1
20260506155042 78 243 5.0 14.0 0.00 0.03 0.01 72 1016.2
20260506154541 79 248 5.0 18.0 0.00 0.03 0.01 72 1016.2
20260506154041 78 221 6.0 18.0 0.00 0.03 0.01 74 1016.1
20260506153544 78 272 5.0 13.0 0.00 0.03 0.01 73 1016.2
20260506153041 77 248 7.0 13.0 0.00 0.03 0.01 75 1016.3
20260506152544 77 255 5.0 11.0 0.00 0.03 0.01 77 1016.4
20260506152040 76 221 5.0 17.0 0.00 0.03 0.01 77 1016.3
20260506151542 76 233 6.0 13.0 0.00 0.03 0.01 76 1016.4
20260506151039 76 230 7.0 13.0 0.00 0.03 0.01 76 1016.3
20260506150539 76 218 3.0 10.0 0.00 0.03 0.01 77 1016.3
20260506150039 77 223 4.0 9.0 0.00 0.03 0.01 76 1016.4
20260506145539 77 202 5.0 9.0 0.00 0.03 0.01 75 1016.4
20260506145039 77 234 3.0 16.0 0.00 0.03 0.01 75 1016.3
20260506144552 77 297 7.0 16.0 0.00 0.03 0.01 74 1016.5
20260506144038 78 248 4.0 15.0 0.00 0.03 0.01 74 1016.5
20260506143538 78 301 4.0 15.0 0.00 0.03 0.01 73 1016.5
20260506143037 78 245 2.0 13.0 0.00 0.03 0.01 74 1016.4
20260506142535 77 244 3.0 13.0 0.00 0.03 0.01 74 1016.4
20260506142035 77 270 4.0 10.0 0.00 0.03 0.01 73 1016.3
20260506141535 77 328 3.0 16.0 0.00 0.03 0.01 73 1016.3
20260506141035 77 168 3.0 16.0 0.00 0.03 0.01 76 1016.5
20260506140535 77 293 5.0 16.0 0.00 0.03 0.01 74 1016.4
20260506140036 77 231 5.0 14.0 0.00 0.03 0.01 73 1016.5
20260506135534 77 107 3.0 12.0 0.00 0.03 0.01 73 1016.4
20260506135033 77 256 2.0 13.0 0.00 0.03 0.01 74 1016.2
20260506134534 77 91 3.0 13.0 0.00 0.03 0.01 74 1016.1
20260506134033 77 248 1.0 12.0 0.00 0.03 0.01 75 1016.1
20260506133534 76 291 3.0 13.0 0.00 0.03 0.01 74 1016.3
20260506133034 77 250 3.0 13.0 0.00 0.03 0.01 75 1016.6
20260506132534 76 219 4.0 12.0 0.00 0.03 0.01 76 1016.5
20260506132031 76 248 2.0 12.0 0.00 0.03 0.01 76 1016.5
20260506131537 76 259 3.0 9.0 0.00 0.03 0.01 77 1016.4
20260506131032 76 283 2.0 6.0 0.00 0.03 0.01 77 1016.4
20260506130529 76 244 1.0 9.0 0.00 0.03 0.01 78 1016.2
20260506130027 75 311 3.0 10.0 0.00 0.03 0.01 79 1016.1
20260506125525 75 265 3.0 10.0 0.00 0.03 0.01 79 1016.1
20260506125025 75 231 3.0 10.0 0.00 0.03 0.01 79 1016.1
20260506124528 74 220 1.0 10.0 0.00 0.03 0.01 80 1016.1
20260506124026 73 277 0.0 10.0 0.00 0.03 0.01 81 1016.0
20260506123523 74 263 1.0 8.0 0.00 0.03 0.01 80 1016.0
20260506123021 73 167 0.0 8.0 0.00 0.03 0.01 82 1016.0
20260506122520 72 238 1.0 3.0 0.00 0.03 0.01 84 1016.1
20260506122023 71 274 0.0 6.0 0.00 0.03 0.01 84 1016.0
20260506121518 72 292 1.0 4.0 0.00 0.03 0.01 85 1016.1
20260506121018 71 71 1.0 4.0 0.00 0.03 0.01 86 1016.1
20260506120522 70 260 1.0 4.0 0.00 0.03 0.01 87 1016.1
20260506120019 69 231 1.0 4.0 0.00 0.03 0.01 90 1016.2
20260506115515 68 245 1.0 4.0 0.00 0.03 0.01 93 1016.2
20260506115012 66 213 0.0 1.0 0.00 0.03 0.01 97 1016.1
20260506114529 65 219 0.0 1.0 0.00 0.03 0.01 97 1016.2
20260506114012 64 32 0.0 1.0 0.00 0.03 0.01 98 1016.2
20260506113514 63 311 0.0 0.0 0.00 0.03 0.01 98 1016.4
20260506113013 63 311 0.0 1.0 0.00 0.03 0.01 98 1016.4
20260506112514 62 74 0.0 0.0 0.00 0.03 0.01 98 1016.4
20260506112012 62 74 0.0 1.0 0.00 0.03 0.01 98 1016.2
20260506111511 61 74 0.0 1.0 0.00 0.03 0.01 98 1016.1
20260506111015 60 74 0.0 1.0 0.00 0.03 0.01 98 1016.1
20260506110514 60 74 0.0 1.0 0.00 0.03 0.01 98 1016.2
20260506110012 59 74 0.0 0.0 0.01 0.03 0.01 98 1016.2
20260506105517 58 74 0.0 0.0 0.01 0.03 0.01 98 1016.0
20260506105011 57 74 0.0 0.0 0.01 0.03 0.01 97 1016.0
20260506104510 57 74 0.0 0.0 0.01 0.03 0.01 97 1016.0
20260506104010 57 74 0.0 0.0 0.01 0.03 0.01 97 1016.1
20260506103512 57 74 0.0 0.0 0.01 0.03 0.01 97 1016.1
20260506103009 57 74 0.0 0.0 0.01 0.03 0.01 97 1016.0
20260506102512 57 74 0.0 0.0 0.01 0.03 0.01 97 1016.0
20260506102010 57 74 0.0 0.0 0.01 0.03 0.01 97 1016.0
20260506101508 57 74 0.0 0.0 0.01 0.03 0.01 96 1015.8
20260506101007 57 74 0.0 0.0 0.01 0.03 0.01 96 1015.8
20260506100507 57 74 0.0 0.0 0.01 0.03 0.01 96 1015.9
20260506100020 57 74 0.0 0.0 0.01 0.03 0.01 96 1015.8
20260506095506 57 74 0.0 0.0 0.00 0.02 0.00 96 1015.9
20260506095009 57 74 0.0 0.0 0.00 0.02 0.00 96 1016.0
20260506094505 57 74 0.0 0.0 0.00 0.02 0.00 96 1015.9
20260506094004 58 74 0.0 0.0 0.00 0.02 0.00 96 1015.8
20260506093503 58 74 0.0 0.0 0.00 0.02 0.00 96 1015.7
20260506093003 58 74 0.0 0.0 0.00 0.02 0.00 96 1015.7
20260506092504 58 74 0.0 1.0 0.00 0.02 0.00 95 1015.9
20260506092002 59 74 0.0 1.0 0.00 0.02 0.00 95 1015.8
20260506091502 59 74 0.0 0.0 0.00 0.02 0.00 94 1015.6
20260506091001 59 74 0.0 0.0 0.00 0.02 0.00 94 1015.6
20260506090600 59 74 0.0 0.0 0.00 0.02 0.00 94 1015.7
20260506090100 59 74 0.0 0.0 0.00 0.02 0.00 94 1015.7
20260506085559 60 74 0.0 0.0 0.00 0.02 0.00 94 1015.8
20260506085057 60 74 0.0 0.0 0.00 0.02 0.00 93 1015.8
20260506084603 60 74 0.0 1.0 0.00 0.02 0.00 93 1015.9
20260506084058 60 255 0.0 0.0 0.00 0.02 0.00 93 1015.9
20260506083556 61 255 0.0 0.0 0.00 0.02 0.00 92 1015.8
20260506083056 61 255 0.0 0.0 0.00 0.02 0.00 92 1015.8
20260506082555 61 255 0.0 0.0 0.00 0.02 0.00 93 1015.7
20260506082055 61 255 0.0 0.0 0.00 0.02 0.00 93 1015.9
20260506081555 61 255 0.0 0.0 0.00 0.02 0.00 94 1015.9
20260506080556 61 255 0.0 0.0 0.00 0.02 0.00 93 1015.7
20260506073047 62 255 0.0 1.0 0.00 0.02 0.00 91 1016.0
20260506072546 62 255 0.0 0.0 0.00 0.02 0.00 91 1016.1
20260506072045 63 255 0.0 0.0 0.00 0.02 0.00 90 1016.1
20260506071552 63 255 0.0 0.0 0.00 0.02 0.00 89 1016.1
20260506070550 63 255 0.0 0.0 0.00 0.02 0.00 89 1016.2
20260506062041 65 139 0.0 3.0 0.00 0.02 0.00 86 1015.9
20260506061540 65 124 0.0 1.0 0.00 0.02 0.00 85 1016.2
20260506060539 65 124 0.0 1.0 0.00 0.02 0.00 85 1016.3
20260506050529 66 107 0.0 4.0 0.00 0.02 0.00 83 1016.9
20260506045028 66 150 0.0 2.0 0.00 0.02 0.00 83 1016.9
20260506044536 66 290 0.0 4.0 0.00 0.02 0.00 83 1017.1
20260506044027 66 131 0.0 4.0 0.00 0.02 0.00 83 1017.2
20260506043526 66 164 0.0 3.0 0.00 0.02 0.00 83 1017.2
20260506043027 66 127 1.0 3.0 0.00 0.02 0.00 83 1017.1
20260506042528 66 65 0.0 4.0 0.00 0.02 0.00 83 1017.2
20260506042024 66 278 0.0 4.0 0.00 0.02 0.00 83 1017.4
20260506041525 66 256 0.0 4.0 0.00 0.02 0.00 83 1017.3
20260506040525 66 112 0.0 4.0 0.00 0.02 0.00 83 1017.3
20260506040023 66 262 0.0 4.0 0.00 0.02 0.00 82 1017.4
20260506035526 66 274 0.0 4.0 0.00 0.02 0.02 82 1017.4
20260506035023 66 316 0.0 4.0 0.00 0.02 0.02 82 1017.5
20260506034523 66 245 0.0 4.0 0.00 0.02 0.02 82 1017.4
20260506034023 66 115 0.0 2.0 0.00 0.02 0.02 82 1017.4
20260506033522 66 93 0.0 3.0 0.00 0.02 0.02 82 1017.5
20260506033032 66 268 0.0 3.0 0.00 0.02 0.02 83 1017.4
20260506032523 66 121 0.0 3.0 0.00 0.02 0.02 83 1017.4
20260506032022 66 245 0.0 3.0 0.00 0.02 0.02 83 1017.5
20260506031531 66 112 0.0 5.0 0.00 0.02 0.02 83 1017.5
20260506030524 66 120 0.0 5.0 0.00 0.02 0.02 83 1017.7
20260506030042 66 241 0.0 4.0 0.00 0.02 0.02 82 1017.6
20260506025522 66 262 0.0 4.0 0.00 0.02 0.02 83 1017.6
20260506025024 66 156 0.0 4.0 0.00 0.02 0.02 82 1017.6
20260506024527 66 97 0.0 2.0 0.00 0.02 0.02 82 1017.7
20260506024021 66 109 0.0 5.0 0.00 0.02 0.02 82 1017.6
20260506023521 66 253 1.0 5.0 0.00 0.02 0.02 82 1017.6
20260506023021 66 119 0.0 4.0 0.00 0.02 0.02 82 1017.7
20260506022521 67 281 1.0 4.0 0.00 0.02 0.02 82 1017.7
20260506022020 66 253 0.0 6.0 0.00 0.02 0.02 83 1017.6
20260506021521 66 118 1.0 5.0 0.00 0.02 0.02 83 1017.6
20260506020524 66 253 0.0 3.0 0.00 0.02 0.02 82 1017.5
20260506020020 66 101 0.0 4.0 0.00 0.02 0.02 82 1017.5
20260506015521 66 252 0.0 4.0 0.00 0.02 0.02 82 1017.6
20260506015021 66 68 0.0 3.0 0.00 0.02 0.02 82 1017.4
20260506014520 66 259 1.0 3.0 0.00 0.02 0.02 82 1017.4
20260506014020 66 63 0.0 3.0 0.00 0.02 0.02 82 1017.4
20260506013523 66 141 0.0 3.0 0.00 0.02 0.02 82 1017.3
20260506013019 67 81 1.0 6.0 0.00 0.02 0.02 82 1017.3
20260506012520 66 232 1.0 4.0 0.00 0.02 0.02 82 1017.2
20260506012020 66 117 0.0 2.0 0.00 0.02 0.02 82 1017.3
20260506011529 66 146 1.0 4.0 0.01 0.02 0.02 83 1017.3
20260506010521 66 275 0.0 5.0 0.01 0.02 0.02 84 1017.3
20260506010021 66 139 1.0 5.0 0.02 0.02 0.02 84 1017.2
20260506005521 66 102 0.0 0.0 0.02 0.04 0.02 84 1017.2
20260506005021 67 102 0.0 3.0 0.02 0.04 0.02 84 1017.3
20260506004540 67 102 0.0 3.0 0.02 0.04 0.02 84 1017.3
20260506004121 67 124 0.0 4.0 0.02 0.04 0.02 84 1017.2
20260506003521 67 248 1.0 4.0 0.02 0.04 0.02 84 1017.3
20260506003031 67 179 0.0 3.0 0.02 0.04 0.02 83 1017.2
20260506002520 67 256 0.0 3.0 0.02 0.04 0.02 83 1017.1
20260506002020 67 269 0.0 3.0 0.02 0.04 0.02 82 1017.2
20260506001523 68 240 0.0 2.0 0.02 0.04 0.02 80 1017.1
20260506000518 68 238 0.0 2.0 0.01 0.03 0.01 79 1017.1
20260506000022 68 224 0.0 3.0 0.00 0.02 0.00 79 1017.1
20260505235517 68 247 1.0 3.0 0.00 0.02 0.00 78 1017.1
20260505235018 68 249 0.0 4.0 0.00 0.02 0.00 77 1017.1
20260505234517 69 246 0.0 5.0 0.00 0.02 0.00 77 1017.1
20260505234117 69 244 0.0 5.0 0.00 0.02 0.00 76 1017.2
20260505233520 69 235 0.0 4.0 0.00 0.02 0.00 75 1017.1
20260505233017 70 152 0.0 5.0 0.00 0.02 0.00 74 1017.1
20260505232517 70 229 2.0 6.0 0.00 0.02 0.00 73 1017.1
20260505232017 71 260 2.0 6.0 0.00 0.02 0.00 72 1017.1
20260505231525 72 229 0.0 9.0 0.00 0.02 0.00 71 1017.1
20260505230519 72 269 1.0 7.0 0.00 0.02 0.00 69 1017.1
20260505230021 72 236 0.0 9.0 0.00 0.02 0.00 69 1017.1
20260505225517 72 240 4.0 9.0 0.00 0.02 0.00 69 1017.1
20260505225022 73 194 2.0 7.0 0.00 0.02 0.00 68 1017.2
20260505224517 73 260 1.0 11.0 0.00 0.02 0.00 69 1017.1
20260505224016 73 283 1.0 8.0 0.00 0.02 0.00 70 1017.1
20260505223516 72 227 0.0 10.0 0.00 0.02 0.00 70 1017.2
20260505223016 71 235 2.0 10.0 0.00 0.02 0.00 70 1017.2
20260505222519 72 233 0.0 7.0 0.00 0.02 0.00 70 1017.2